Regional Weather Roundup
Issued by NWS

Home | Current Version | Previous Version | Graphics & Text | Print | Product List | Glossary On
Versions: 1 2 3 4 5 6 7 8 9 10 11 12 13 14 15 16 17 18 19 20 21 22 23 24 25 26 27 28 29 30 31 32 33 34 35 36 37 38 39 40 41 42 43 44 45 46 47
000
ASUS43 KDMX 271807
RWRIA

WEATHER ROUNDUP FOR IOWA
NATIONAL WEATHER SERVICE DES MOINES IA
1200 PM CST SAT DEC 27 2014

NOTE: "FAIR" INDICATES FEW OR NO CLOUDS BELOW 12,000 FEET WITH NO
SIGNIFICANT WEATHER AND/OR OBSTRUCTIONS TO VISIBILITY.

* - THESE STATIONS ARE NOT NWS STATIONS...THUS NOT UNDER NWS
QUALITY CONTROL.  THEY ALSO DO NOT REPORT WEATHER SUCH
AS PRECIPITATION OR FOG.

IAZ001>003-012>014-020>022-031>034-043>046-271900-
   NORTHWEST IOWA

CITY           SKY/WX    TMP DP  RH WIND       PRES   REMARKS
CARROLL *      MOSUNNY   23  18  80 NW13      30.20S WCI  11
CHEROKEE *     PTSUNNY   18  15  88 W9        30.20S WCI   7
DENISON *      MOSUNNY   23  18  80 NW9       30.19F WCI  13
LE MARS *      MOSUNNY   18  14  86 NW8       30.22F WCI   7
ORANGE CITY *  CLOUDY    18  14  86 W13       30.19S WCI   4
SHELDON *      MOSUNNY   18  14  86 NW10G17   30.17F WCI   6
SIOUX CITY     MOSUNNY   21  14  74 NW8       30.24F WCI  11
6HR MIN TEMP:  16; 6HR MAX TEMP:  21;

SPENCER        SUNNY     20  13  74 W16       30.17F WCI   6
6HR MIN TEMP:  16; 6HR MAX TEMP:  22; 6HR PCP: TRACE;

STORM LAKE *   PTSUNNY   18  16  93 W13       30.18S WCI   4
$$

IAZ055>058-069>071-079>083-090>094-271900-
   SOUTHWEST IOWA

CITY           SKY/WX    TMP DP  RH WIND       PRES   REMARKS
ATLANTIC *     CLOUDY    25  21  86 NW12      30.21F WCI  14
AUDUBON *      MOSUNNY   25  18  74 NW8       30.20F WCI  16
CLARINDA *     CLOUDY    27  21  80 NW8G16    30.26S WCI  18
COUNCIL BLFS * PTSUNNY   23  19  86 NW13G18   30.21F WCI  11
CRESTON *      CLOUDY    27  23  86 NW10      30.20S WCI  17
HARLAN  *      PTSUNNY   23  21  93 NW12      30.25F WCI  12
LAMONI         CLOUDY    28  23  81 NW14      30.20R WCI  17
6HR MIN TEMP:  28; 6HR MAX TEMP:  32;

RED OAK *      CLOUDY    25  21  86 NW10      30.24S WCI  15
SHENANDOAH *   CLOUDY    27  21  80 NW8       30.26F WCI  18
$$

IAZ047>049-059>061-072>074-084-271900-
   CENTRAL IOWA

CITY           SKY/WX    TMP DP  RH WIND       PRES   REMARKS
AMES           CLOUDY    27  20  75 NW14      30.16F WCI  16
6HR MIN TEMP:  26; 6HR MAX TEMP:  28;

ANKENY *       CLOUDY    27  23  86 NW14      30.17F WCI  15
CHARITON *     CLOUDY    30  25  80 NW15      30.17F WCI  19
DES MOINES     CLOUDY    28  22  78 NW17      30.18F WCI  16
6HR MIN TEMP:  28; 6HR MAX TEMP:  32;

GRINNELL*      CLOUDY    28  25  86 W18       30.14F WCI  16
KNOXVILLE *    CLOUDY    28  23  80 W13G20    30.15F WCI  18
MARSHALLTOWN   CLOUDY    26  22  84 NW18      30.12F WCI  13
6HR MIN TEMP:  26; 6HR MAX TEMP:  31;

PELLA *        CLOUDY    30  25  82 W13G18    30.17F WCI  20
PERRY *        PTSUNNY   27  23  86 NW10      30.19S WCI  17
$$

IAZ004>006-015-016-023>025-035-036-271900-
   NORTH CENTRAL IOWA

CITY           SKY/WX    TMP DP  RH WIND       PRES   REMARKS
ALGONA *       SUNNY     19  14  79 NW15      30.16F WCI   5
CLARION *      MOSUNNY   19  18  93 NW16      30.16S WCI   5
ESTHERVILLE    SUNNY     17  10  74 NW17      30.15F WCI   1
6HR MIN TEMP:  15; 6HR MAX TEMP:  20; 6HR PCP: TRACE;

FORT DODGE *   SUNNY     21  12  68 NW10G16   30.17F WCI  10
MASON CITY     CLOUDY    21  17  84 NW16      30.13S WCI   7
6HR MIN TEMP:  21; 6HR MAX TEMP:  26; 6HR PCP: TRACE;

FOREST CITY *  CLOUDY    21  18  86 NW16      30.12F WCI   7
IOWA FALLS *   CLOUDY    25  19  80 NW18      30.15S WCI  11
$$

IAZ007>011-017>019-026>030-037>042-050>054-066-271900-
   NORTHEAST IOWA

CITY           SKY/WX    TMP DP  RH WIND       PRES   REMARKS
CEDAR RAPIDS   CLOUDY    30  26  85 NW23      30.08F WCI  17
6HR MIN TEMP:  29; 6HR MAX TEMP:  34;

CHARLES CITY * CLOUDY    25  23  93 NW15G23   30.10R WCI  12
CLINTON *      CLOUDY    34  27  75 W26G33    30.08R WCI  21
DECORAH *      CLOUDY    27  23  86 NW12G18   30.04R WCI  16
DUBUQUE        CLOUDY    31  27  85 W21G29    30.01F WCI  18
6HR MIN TEMP:  31; 6HR MAX TEMP:  40; 6HR PCP: TRACE;

MONTICELLO *   CLOUDY    32  30  93 W15G24    30.05F WCI  22
OELWEIN *      CLOUDY    28  25  86 NW20      30.07S WCI  15
WATERLOO       CLOUDY    28  23  81 NW15G22   30.09F WCI  16
6HR MIN TEMP:  27; 6HR MAX TEMP:  31;

$$

IAZ064-065-067-068-078-271900-
   EAST CENTRAL IOWA

CITY           SKY/WX    TMP DP  RH WIND       PRES   REMARKS
DAVENPORT      CLOUDY    33  27  78 W22       30.07F WCI  21
6HR MIN TEMP:  33; 6HR MAX TEMP:  45; 6HR PCP: TRACE;

IOWA CITY      CLOUDY    32  26  78 W21       30.12S WCI  20
6HR MIN TEMP:  31; 6HR MAX TEMP:  37;

MT. PLEASANT * CLOUDY    32  26  78 W16G22    30.12F WCI  21
MUSCATINE *    CLOUDY    34  27  75 W16G23    30.11F WCI  23
QUAD CITIES    CLOUDY    35  26  69 W16       30.06F WCI  25
6HR MIN TEMP:  35; 6HR MAX TEMP:  49; 6HR PCP:  0.01;

$$

IAZ062-063-075>077-085>089-095>099-271900-
   SOUTHEAST IOWA

CITY           SKY/WX    TMP DP  RH WIND       PRES   REMARKS
BURLINGTON     CLOUDY    36  28  73 W8G20     30.08F WCI  30
6HR MIN TEMP:  36; 6HR MAX TEMP:  42;

FAIRFIELD *    CLOUDY    32  25  74 W15       30.13F WCI  22
FORT MADISON * PTSUNNY   37  30  75 W16       30.12F WCI  28
KEOKUK *       CLOUDY    37  28  70 W20       30.14R WCI  27
OSKALOOSA *    CLOUDY    30  26  84 W21       30.14F WCI  17
CENTERVILLE *  CLOUDY    32  27  80 NW14G20   30.18S WCI  22
OTTUMWA        CLOUDY    31  24  75 NW15G22   30.14F WCI  20
6HR MIN TEMP:  30; 6HR MAX TEMP:  35;

WASHINGTON *   CLOUDY    32  30  93 NW20      30.11F WCI  20
$$

ABBREVIATIONS USED IN REMARKS
   TC - TEMPERATURES IN CELSIUS
  WCI - WIND CHILL INDEX
   HX - HEAT INDEX
  VSB - VISIBILITY
$$



USA.gov is the U.S. government's official web portal to all federal, state and local government web resources and services.